Temperature
25 25 25 26 27 27 26 26 26 27 28 27 26 26 26 25 24 23 22 21 19 18 17 17 18 18 18 18 18 18 18 18 18 17 17 17 17 16 17 16 16 17 17 17
25 25 26 27 27 26 26 25 26 27 27 26 26 25 25 24 24 22 21 20 18 17 16 16 16 16 16 17 17 17 17 17 17 17 17 16 16 16 16 16 16 16 16 16
25 26 27 27 26 26 26 25 26 26 26 26 25 24 23 23 22 21 20 18 17 16 15 15 15 15 15 16 16 16 16 17 16 16 16 16 16 16 15 16 16 16 16 16
26 27 27 26 26 26 25 26 26 26 25 25 25 22 21 21 20 20 18 17 16 15 14 14 14 14 14 15 15 15 16 16 16 16 16 15 15 15 15 15 15 15 15 15
26 27 26 26 26 26 26 27 26 25 24 24 24 22 21 20 19 18 17 16 15 14 14 13 13 13 13 14 14 15 15 15 15 16 16 15 15 15 15 15 15 15 15 15
26 27 27 27 27 27 26 26 25 24 24 22 23 21 20 19 18 17 16 15 14 13 13 12 12 12 12 13 14 14 14 14 14 15 15 15 15 14 14 14 14 14 14 14
25 26 26 27 26 26 26 24 22 20 20 20 21 21 19 19 18 17 15 14 13 13 12 12 12 12 12 12 13 13 13 13 13 14 14 14 14 14 14 13 13 13 13 13
24 24 25 26 26 25 25 24 21 19 19 19 19 19 17 18 17 16 14 13 12 12 11 11 10 11 11 11 12 12 13 13 13 13 13 13 13 13 12 12 12 12 12 12
24 24 26 27 27 26 24 24 24 22 21 19 19 18 17 17 16 15 14 13 12 11 10 10 10 10 10 10 11 11 12 12 12 12 12 12 12 12 11 11 11 11 11 11
25 23 25 26 26 26 26 25 24 22 20 19 18 18 16 16 15 15 14 13 11 10 10 10 10 10 10 10 10 10 11 11 11 11 11 11 11 10 10 11 11 10 10 10
25 23 24 25 24 24 25 24 24 23 22 19 18 17 17 16 16 15 14 12 11 10 9 9 9 9 9 9 9 9 9 10 10 10 10 9 9 9 9 9 9 9 9 9
25 24 23 23 24 25 25 24 24 22 21 21 19 17 17 16 15 14 13 11 10 10 9 9 9 9 8 8 8 8 8 9 9 9 9 9 9 8 8 8 8 8 8 8
24 22 21 21 21 22 23 24 24 23 21 20 18 16 16 15 14 13 11 10 9 9 9 8 8 8 8 8 8 8 8 8 8 8 8 8 8 8 8 7 7 8 8 7
24 22 21 20 19 20 22 23 24 23 21 20 19 17 15 14 13 12 10 9 9 9 8 8 8 7 7 7 7 7 7 7 7 7 7 7 7 7 7 7 7 7 7 7
23 22 22 22 23 23 23 23 23 23 22 21 20 18 16 14 13 11 10 9 9 8 8 8 7 7 7 7 7 7 6 6 6 7 7 6 6 6 6 6 6 6 6 6
23 22 22 22 23 23 23 23 23 23 22 21 20 18 17 15 13 11 10 10 9 8 8 7 7 7 7 7 7 6 6 6 6 6 6 6 6 6 6 6 6 6 6 6
22 21 20 20 22 23 22 23 23 23 23 21 19 17 16 14 12 11 10 10 9 8 7 7 7 7 7 7 6 6 6 6 6 6 6 6 6 6 6 6 6 6 5 5
22 21 20 20 21 19 21 24 23 23 22 21 19 17 16 14 12 11 10 9 8 7 7 7 6 6 6 6 6 6 6 6 6 6 6 6 6 6 6 5 5 5 5 5
23 21 21 20 19 20 21 22 23 21 20 20 18 16 14 12 11 9 9 9 8 7 7 6 6 6 6 6 6 6 6 6 6 6 6 6 6 6 5 5 5 5 5 5
23 23 21 20 19 19 19 22 22 22 19 19 17 16 14 13 12 10 8 8 7 7 7 6 6 6 6 6 6 6 6 6 6 6 6 6 6 5 5 5 5 5 5 5
21 22 21 20 19 19 20 22 22 20 17 18 17 15 14 14 13 9 8 7 7 7 6 6 6 6 6 6 6 6 6 6 6 6 6 6 6 6 5 5 5 5 5 5
22 21 21 20 19 18 20 21 20 18 18 17 16 14 13 11 10 8 8 7 7 6 6 6 6 6 6 6 6 6 6 6 6 6 6 6 6 6 5 5 5 5 6 5
22 21 21 20 19 19 19 19 18 18 17 16 14 13 11 10 9 8 8 7 7 7 6 6 6 6 6 6 6 6 6 6 6 6 6 6 6 6 6 6 6 6 6 6
22 22 22 21 20 20 19 18 18 17 16 15 13 12 11 10 9 8 8 7 7 7 6 6 6 6 6 6 6 6 6 6 6 6 6 6 6 6 6 6 6 6 6 6
20 21 21 21 20 19 19 18 17 16 15 14 13 12 11 10 9 8 8 7 7 7 7 7 6 6 6 6 6 6 6 6 6 6 6 6 6 6 6 6 6 6 6 6
21 21 22 21 20 20 18 17 16 15 14 13 12 11 11 10 9 8 8 8 7 7 7 7 7 6 6 6 6 6 6 6 6 6 6 6 6 6 6 5 5 6 6 6
Wind_Speed
14 13 12 12 12 11 12 12 13 12 7 8 12 12 7 4 2 2 2 4 7 8 10 12 11 10 10 9 7 4 2 2 4 5 5 4 3 2 1 0 3 4 5 6
14 15 14 10 7 8 11 13 14 12 9 9 12 11 8 5 4 3 4 5 7 7 10 12 12 11 10 9 9 6 4 1 2 3 4 3 2 2 3 2 1 0 2 4
16 11 7 6 9 11 13 13 14 14 12 12 14 13 8 4 3 4 6 7 7 7 9 10 11 11 10 10 9 7 6 4 2 2 3 4 3 2 2 3 2 3 3 2
14 12 7 9 12 13 14 13 13 15 15 13 11 11 7 4 3 4 5 7 7 8 9 9 9 9 10 9 8 7 6 6 4 3 4 4 3 3 3 4 4 5 6 6
12 11 11 12 12 12 14 14 14 14 15 16 12 10 7 5 5 3 6 8 8 9 9 9 8 9 10 9 9 7 7 7 6 4 5 5 5 5 5 6 7 7 7 8
16 14 12 11 11 11 13 15 15 13 12 15 12 11 7 5 7 6 8 8 8 9 10 10 9 9 9 10 9 9 9 9 8 8 8 8 8 8 8 7 7 7 6 7
15 15 13 12 12 12 11 11 9 8 7 10 10 7 2 4 10 12 12 9 9 9 10 10 11 10 10 11 10 10 10 11 10 9 9 9 10 10 10 9 9 8 7 8
12 9 7 8 10 10 10 10 7 8 8 8 6 5 1 7 11 14 13 11 10 9 10 11 10 10 11 11 11 11 11 12 11 10 10 10 11 9 9 11 10 10 9 9
8 7 5 6 7 9 10 10 8 9 12 8 4 2 3 9 11 12 12 11 11 10 11 11 11 11 11 11 11 11 12 12 12 12 12 13 13 12 12 11 11 10 9 9
9 10 10 6 7 9 10 10 8 7 7 6 5 3 0 6 10 10 10 11 11 11 11 11 11 11 11 11 11 11 12 13 13 12 12 12 13 12 11 12 12 11 10 9
6 8 10 9 9 10 8 8 8 8 7 7 6 2 2 7 9 12 11 11 11 11 10 10 10 11 11 11 12 12 12 13 12 12 12 12 12 12 12 11 11 10 9 9
3 6 10 10 10 10 8 8 8 8 8 8 6 2 2 4 8 11 13 12 11 11 11 10 11 11 11 12 12 12 12 13 13 12 12 12 12 12 12 12 10 10 10 9
4 4 7 8 7 7 8 8 7 6 6 7 6 2 5 9 11 13 13 12 11 11 11 11 10 11 11 11 11 11 11 12 11 12 13 12 12 12 11 10 10 9 9 9
3 6 8 9 8 8 9 10 8 7 6 7 5 3 8 10 12 12 12 12 11 11 10 11 11 10 11 11 11 11 11 11 11 12 12 12 10 10 9 9 8 8 8 9
4 8 10 11 11 11 11 11 8 7 7 7 4 3 10 13 13 14 14 13 12 12 11 11 10 10 10 10 10 10 10 10 10 11 12 10 9 8 8 8 8 8 8 10
4 8 12 13 12 12 12 8 6 6 6 4 2 4 11 14 14 14 14 13 13 12 11 11 11 11 10 10 10 10 10 10 9 10 11 10 8 8 8 8 8 8 8 9
6 7 9 11 14 13 8 4 3 4 5 4 2 7 16 15 14 14 14 13 13 12 12 11 10 9 9 9 10 10 9 9 10 9 9 9 8 8 8 8 8 8 8 8
8 8 6 9 11 7 2 1 2 3 6 7 9 14 15 15 13 11 12 13 13 13 12 11 10 10 9 9 9 9 9 9 9 9 9 8 8 9 8 8 8 7 7 7
10 8 6 6 7 5 3 2 4 3 4 8 12 15 17 18 14 9 10 12 13 13 12 11 10 10 10 10 9 9 9 9 9 9 8 7 8 8 8 8 7 6 6 6
10 9 8 8 8 5 1 3 4 1 4 9 12 15 18 16 8 7 11 14 14 14 12 11 11 10 10 9 8 9 9 8 8 8 8 7 7 7 7 7 6 5 5 6
9 9 10 10 7 1 3 4 5 3 4 7 10 13 14 9 6 15 17 15 15 14 13 12 11 10 9 8 7 8 9 8 8 8 7 7 6 6 6 5 4 4 5 6
6 4 5 5 3 1 5 5 4 5 7 9 11 13 13 15 20 19 18 17 16 15 14 13 11 10 8 7 8 8 8 7 7 7 7 6 4 6 7 5 4 4 5 5
3 0 0 1 3 5 7 8 8 8 10 12 13 16 18 19 20 19 18 17 16 15 13 11 12 11 8 7 7 9 8 7 7 7 6 5 6 6 5 4 3 3 3 4
1 2 1 4 9 9 10 10 10 11 13 15 17 18 19 20 20 18 17 16 15 14 13 12 12 11 9 8 7 8 7 6 6 6 6 5 5 5 4 3 3 4 4 3
1 1 1 5 11 11 10 11 13 15 16 17 17 17 18 20 19 18 16 15 14 13 12 11 11 10 10 9 8 8 7 6 5 5 5 5 5 6 7 8 8 8 8 7
3 1 1 4 9 9 12 13 16 16 16 17 17 18 18 18 18 17 15 14 13 12 11 11 11 11 10 10 9 7 7 6 5 5 4 4 4 5 6 7 8 12 9 10
Wind_Direction
226 232 244 243 238 271 303 302 297 292 284 273 266 267 256 234 212 162 111 91 74 62 53 45 34 36 34 37 51 75 101 144 155 162 177 207 214 200 147 173 229 195 206 215
239 234 247 264 281 286 283 281 281 285 281 270 271 270 261 249 223 184 123 93 88 71 56 46 32 30 37 34 32 41 41 35 169 178 174 183 165 155 159 166 47 88 204 210
244 250 233 258 269 267 268 276 286 292 288 262 261 266 271 246 171 124 112 91 82 70 62 52 37 25 29 31 23 22 28 33 49 125 153 149 141 157 160 117 85 49 55 42
253 255 253 256 261 266 275 281 286 286 284 280 270 270 258 215 183 141 116 103 85 78 69 59 46 30 25 24 20 17 30 38 37 84 132 145 142 132 122 109 98 64 55 52
261 260 254 254 262 273 283 291 289 284 280 278 275 271 267 171 200 165 111 96 81 78 75 66 54 41 27 20 22 25 37 46 36 60 100 122 114 108 102 99 84 68 56 52
269 272 269 272 275 279 285 287 284 283 279 273 279 276 255 185 182 160 121 106 92 83 72 63 60 53 39 26 24 30 43 46 40 53 69 88 102 109 109 99 91 76 64 55
258 263 262 259 268 272 277 280 287 295 288 279 312 302 293 157 159 149 139 129 103 89 77 62 48 46 40 33 25 37 50 53 48 60 73 84 93 98 97 91 84 78 69 61
269 272 264 245 256 280 283 274 268 280 281 278 300 285 61 105 122 124 125 119 103 88 77 68 55 49 43 40 37 45 57 60 58 62 72 76 79 80 80 80 83 79 76 72
297 307 285 264 261 273 281 278 273 274 280 284 258 230 116 112 116 120 123 118 108 94 82 73 63 56 51 51 50 51 59 64 65 69 74 73 77 82 83 85 85 84 82 82
280 295 292 290 274 260 262 283 292 290 301 296 286 264 238 160 156 144 134 122 108 98 87 78 70 64 58 59 64 62 64 69 69 72 77 81 80 83 86 85 84 85 85 84
281 290 293 296 285 290 278 276 286 294 303 305 305 307 168 179 179 158 134 119 112 102 91 83 78 74 72 71 68 67 69 73 73 76 79 82 84 85 85 84 86 88 88 87
294 294 296 300 308 306 290 290 291 293 302 304 305 314 59 131 151 137 120 110 103 99 94 89 85 81 76 73 72 71 72 75 75 77 78 79 81 83 84 85 85 86 86 85
341 304 302 315 332 325 302 290 294 298 299 307 310 281 101 109 119 119 116 114 110 104 100 94 87 83 81 78 78 76 76 79 82 84 82 80 80 82 84 84 84 83 83 83
298 280 285 287 283 275 284 288 292 297 300 305 301 194 141 132 126 124 123 124 120 113 104 99 93 89 87 84 83 83 82 82 84 85 85 83 84 86 89 90 89 88 87 85
272 282 291 290 284 276 280 289 301 307 303 301 299 175 156 151 144 138 134 132 129 121 115 111 106 102 99 97 94 93 91 89 90 91 90 89 91 93 92 90 86 84 84 84
258 287 300 299 296 286 279 277 290 304 317 330 72 107 137 135 134 137 141 141 136 131 125 118 112 110 108 107 104 101 100 99 96 95 97 99 98 94 91 89 86 82 79 80
272 278 293 296 301 296 285 295 310 334 357 1 35 126 136 137 144 149 150 145 138 132 125 120 116 112 110 110 111 108 109 108 103 101 101 101 99 94 91 92 89 86 83 82
261 280 285 290 302 296 293 45 39 4 32 60 103 129 139 138 135 137 143 142 136 133 128 125 121 117 114 112 112 113 112 109 105 101 99 98 98 96 94 92 88 84 84 85
234 249 270 281 289 282 302 355 22 8 58 96 116 127 127 124 115 115 131 133 132 132 128 125 124 123 122 121 120 116 111 106 103 101 97 93 92 96 97 96 93 91 94 96
223 226 247 269 289 297 73 31 353 326 98 103 123 136 140 147 147 148 141 133 129 128 129 128 128 126 124 126 129 126 121 117 113 110 103 96 94 94 95 98 103 107 110 110
222 226 241 262 275 326 17 347 317 327 107 118 132 143 153 164 133 137 138 135 133 131 131 132 130 126 127 134 133 126 120 115 111 108 107 103 102 101 97 97 105 114 106 102
235 243 261 281 294 52 360 5 44 96 114 115 121 128 125 116 119 130 136 137 136 135 136 135 132 130 134 140 134 125 120 119 117 113 110 106 100 102 101 94 94 107 120 125
235 107 44 67 106 109 74 81 96 108 111 115 119 124 125 126 130 134 136 138 139 141 141 139 137 137 140 140 135 129 128 126 121 115 113 110 100 95 104 115 129 143 155 146
357 54 121 114 116 110 99 97 96 101 109 114 120 126 129 132 134 136 138 140 141 143 143 144 144 142 142 142 135 133 135 133 128 126 125 120 116 112 97 70 70 61 54 73
295 331 109 111 121 115 105 105 106 108 111 116 121 127 131 133 136 138 139 140 142 145 147 149 147 146 146 144 140 141 137 131 129 128 128 126 112 100 85 69 54 66 55 53
256 163 78 114 136 125 121 117 118 120 121 124 126 128 132 134 135 136 137 139 143 146 147 148 147 145 144 143 138 135 132 132 132 131 134 130 129 129 123 113 88 61 74 71
Height
1472 1473 1468 1461 1458 1457 1457 1458 1457 1451 1446 1450 1453 1454 1454 1457 1460 1463 1466 1469 1472 1475 1475 1476 1477 1477 1478 1479 1480 1481 1484 1487 1489 1491 1495 1497 1500 1502 1505 1507 1509 1513 1517 1520
1467 1465 1458 1453 1454 1457 1459 1460 1457 1450 1446 1450 1453 1454 1454 1456 1459 1464 1468 1472 1475 1477 1477 1477 1479 1478 1479 1479 1480 1482 1484 1485 1488 1491 1493 1495 1497 1500 1503 1505 1507 1510 1513 1516
1462 1455 1451 1454 1457 1459 1458 1458 1456 1454 1448 1447 1452 1457 1457 1458 1461 1466 1469 1474 1476 1477 1478 1478 1480 1481 1481 1480 1480 1481 1483 1485 1487 1489 1492 1494 1495 1499 1501 1503 1506 1508 1511 1512
1453 1448 1450 1454 1456 1456 1459 1450 1450 1451 1454 1455 1453 1467 1461 1462 1465 1469 1471 1475 1478 1479 1479 1480 1481 1481 1481 1480 1481 1482 1483 1485 1487 1488 1491 1492 1493 1496 1498 1501 1504 1506 1508 1510
1451 1447 1449 1453 1452 1450 1451 1446 1448 1450 1453 1456 1455 1464 1466 1462 1469 1472 1474 1478 1481 1481 1481 1482 1483 1482 1481 1482 1482 1482 1483 1485 1486 1487 1489 1491 1493 1496 1499 1500 1502 1504 1506 1508
1448 1445 1444 1446 1445 1446 1446 1447 1448 1450 1452 1464 1458 1464 1467 1465 1469 1473 1476 1481 1483 1483 1483 1484 1485 1484 1483 1482 1483 1482 1483 1484 1485 1487 1488 1490 1492 1495 1497 1500 1501 1503 1504 1506
1452 1446 1443 1444 1447 1445 1446 1456 1469 1475 1476 1472 1461 1464 1467 1462 1463 1469 1476 1482 1484 1484 1485 1484 1485 1485 1484 1484 1484 1483 1484 1484 1486 1487 1488 1490 1491 1493 1496 1498 1500 1502 1503 1505
1455 1455 1445 1441 1445 1447 1446 1452 1474 1486 1484 1476 1469 1471 1471 1466 1468 1473 1478 1482 1484 1486 1486 1486 1486 1486 1486 1485 1485 1484 1484 1485 1487 1488 1490 1491 1492 1494 1496 1498 1501 1503 1504 1506
1454 1453 1440 1438 1439 1442 1447 1447 1448 1461 1463 1470 1471 1470 1473 1470 1474 1477 1481 1483 1485 1487 1487 1488 1488 1488 1488 1488 1487 1486 1486 1487 1488 1490 1491 1492 1493 1495 1498 1500 1502 1504 1506 1508
1446 1453 1441 1437 1437 1437 1439 1441 1447 1456 1470 1477 1474 1474 1476 1476 1477 1479 1482 1484 1486 1488 1489 1489 1490 1490 1490 1490 1490 1489 1489 1489 1491 1492 1493 1494 1496 1498 1500 1502 1504 1506 1508 1510
1443 1453 1448 1442 1443 1442 1441 1442 1445 1449 1454 1469 1479 1479 1469 1472 1475 1478 1482 1485 1488 1490 1491 1492 1493 1493 1493 1494 1493 1494 1494 1493 1495 1496 1497 1497 1499 1502 1503 1505 1507 1509 1511 1513
1444 1450 1454 1447 1441 1437 1437 1440 1444 1456 1459 1458 1469 1480 1468 1468 1474 1479 1483 1487 1490 1492 1493 1494 1496 1496 1497 1497 1497 1498 1498 1497 1499 1500 1501 1502 1504 1506 1507 1509 1511 1513 1515 1516
1447 1454 1464 1462 1459 1448 1445 1440 1440 1445 1452 1459 1471 1480 1470 1472 1476 1481 1486 1490 1492 1494 1496 1497 1498 1499 1500 1501 1501 1502 1502 1502 1503 1504 1505 1507 1508 1510 1512 1514 1515 1517 1518 1519
1449 1454 1462 1472 1467 1457 1450 1441 1438 1444 1455 1459 1461 1469 1472 1476 1479 1484 1489 1492 1495 1496 1498 1500 1501 1502 1503 1504 1505 1506 1506 1507 1508 1509 1510 1511 1513 1515 1516 1518 1519 1521 1522 1523
1450 1453 1451 1449 1445 1443 1442 1439 1438 1442 1445 1452 1454 1459 1467 1473 1479 1485 1489 1493 1496 1498 1500 1502 1504 1505 1507 1508 1508 1509 1510 1511 1512 1513 1514 1516 1518 1519 1521 1522 1523 1524 1526 1526
1450 1453 1451 1449 1442 1439 1438 1435 1438 1440 1441 1445 1451 1462 1466 1473 1480 1486 1490 1493 1496 1499 1502 1504 1505 1507 1509 1511 1512 1513 1514 1516 1517 1518 1519 1521 1522 1523 1524 1525 1526 1527 1528 1529
1449 1452 1457 1456 1444 1440 1444 1436 1436 1438 1439 1444 1453 1461 1468 1475 1481 1486 1490 1494 1497 1500 1503 1505 1507 1509 1511 1513 1514 1516 1518 1519 1521 1522 1523 1525 1526 1527 1528 1529 1530 1531 1532 1533
1449 1451 1453 1454 1452 1462 1446 1432 1434 1438 1441 1445 1452 1460 1468 1476 1483 1487 1491 1494 1498 1501 1504 1506 1509 1511 1514 1516 1518 1520 1521 1523 1524 1526 1527 1529 1530 1530 1531 1532 1533 1534 1535 1536
1441 1447 1452 1455 1458 1454 1446 1436 1436 1441 1447 1449 1455 1463 1471 1478 1485 1491 1493 1496 1499 1502 1505 1508 1511 1514 1516 1518 1521 1523 1525 1526 1528 1529 1531 1532 1533 1534 1535 1536 1536 1538 1539 1540
1436 1439 1448 1451 1459 1461 1451 1439 1438 1441 1452 1454 1458 1464 1471 1477 1482 1491 1494 1497 1500 1504 1507 1510 1513 1516 1519 1521 1524 1526 1528 1529 1531 1533 1534 1535 1536 1537 1538 1538 1539 1541 1542 1543
1440 1440 1444 1448 1453 1454 1445 1440 1439 1450 1460 1457 1460 1465 1470 1474 1478 1487 1493 1498 1502 1505 1509 1512 1516 1519 1521 1524 1526 1529 1530 1532 1534 1535 1536 1538 1539 1540 1540 1541 1542 1544 1545 1546
1436 1440 1443 1445 1453 1459 1445 1442 1447 1455 1455 1458 1462 1467 1472 1476 1481 1487 1494 1499 1503 1507 1511 1515 1518 1521 1524 1526 1529 1531 1533 1535 1536 1537 1539 1541 1542 1543 1543 1544 1545 1546 1547 1548
1430 1435 1438 1445 1451 1449 1448 1449 1452 1454 1457 1461 1465 1470 1475 1480 1485 1491 1496 1501 1506 1510 1513 1517 1520 1523 1526 1529 1531 1533 1535 1537 1539 1540 1542 1543 1544 1545 1546 1547 1548 1549 1550 1551
1431 1430 1433 1438 1445 1447 1449 1452 1455 1457 1461 1465 1469 1473 1478 1483 1488 1494 1499 1504 1508 1512 1516 1519 1522 1525 1529 1531 1534 1536 1538 1539 1541 1542 1544 1545 1547 1548 1549 1550 1551 1551 1552 1553
1435 1433 1435 1439 1444 1448 1452 1455 1458 1462 1465 1469 1473 1477 1481 1486 1491 1496 1501 1506 1510 1514 1518 1521 1524 1527 1530 1533 1536 1538 1540 1541 1543 1544 1546 1548 1549 1550 1550 1551 1552 1553 1554 1555
1431 1433 1434 1439 1443 1446 1454 1458 1462 1465 1469 1473 1477 1481 1486 1489 1494 1499 1503 1508 1512 1516 1520 1523 1526 1529 1532 1535 1538 1540 1542 1543 1545 1546 1548 1549 1550 1552 1553 1553 1554 1555 1556 1557